FW9036 Weather Reports


time (UTC)temp
C
wind
direction
speed
KPH
gust
KPH
rain 1hr
cm
rain 24hr
cm
rain mn
cm
humidity
%
barometer
mb
20260509051631 20 124 3.2 3.2 0.00 0.61 0.61 93 1015.8
20260509051128 20 112 3.2 3.2 0.13 0.61 0.61 93 1016.1
20260509050626 20 102 3.2 3.2 0.30 0.61 0.61 93 1016.3
20260509050122 20 106 1.6 3.2 0.43 0.58 0.58 93 1016.6
20260509045620 20 97 4.8 4.8 0.18 0.53 0.53 92 1016.7
20260509045116 20 120 1.6 4.8 0.13 0.51 0.51 92 1017.1
20260509044613 20 353 0.0 0.0 0.13 0.51 0.51 92 1017.5
20260509044111 20 165 0.0 1.6 0.05 0.48 0.48 92 1017.6
20260509043607 20 114 0.0 3.2 0.00 0.48 0.48 92 1017.4
20260509043102 20 114 1.6 1.6 0.05 0.48 0.48 92 1017.2
20260509042559 20 102 3.2 4.8 0.18 0.48 0.48 92 1017.2
20260509042055 20 126 1.6 3.2 0.84 0.46 0.46 91 1017.4
20260509041552 20 83 0.0 1.6 2.34 0.43 0.43 91 1017.5
20260509041050 20 65 3.2 4.8 1.19 0.20 0.20 91 1017.8
20260509040548 20 180 0.0 1.6 0.43 0.05 0.05 90 1018.3
20260509040044 20 99 0.0 1.6 0.18 0.23 0.23 90 1017.7
20260509035541 20 157 1.6 1.6 0.13 0.20 0.20 90 1017.9
20260509035038 20 90 0.0 1.6 0.43 0.20 0.20 90 1017.5
20260509034536 20 69 1.6 3.2 0.97 0.18 0.18 90 1017.6
20260509034033 20 96 1.6 3.2 0.53 0.10 0.10 89 1017.5
20260509033530 20 103 1.6 3.2 0.00 0.03 0.03 89 1017.9
20260509033027 20 90 0.0 3.2 0.00 0.03 0.03 89 1017.4
20260509032524 20 81 0.0 6.4 0.00 0.03 0.03 89 1017.8
20260509032021 21 74 6.4 6.4 0.00 0.03 0.03 89 1017.5
20260509031519 21 14 0.0 6.4 0.00 0.03 0.03 88 1017.7
20260509031016 21 54 0.0 4.8 0.13 0.03 0.03 88 1017.5
20260509030514 21 81 0.0 4.8 0.13 0.03 0.03 87 1017.8
20260509030010 21 337 3.2 4.8 0.00 0.00 0.00 87 1017.6
20260509025506 21 45 3.2 3.2 0.00 0.00 0.00 87 1017.4
20260509025002 21 66 1.6 6.4 0.00 0.00 0.00 86 1017.3
20260509024458 21 36 0.0 6.4 0.00 0.00 0.00 86 1017.2
20260509023955 21 343 3.2 4.8 0.00 0.00 0.00 86 1017.4
20260509023452 21 61 4.8 4.8 0.00 0.00 0.00 86 1017.2
20260509022949 21 0 4.8 6.4 0.00 0.00 0.00 87 1017.4
20260509022446 21 52 3.2 9.7 0.00 0.00 0.00 87 1017.5
20260509021943 22 43 6.4 11.3 0.00 0.00 0.00 87 1017.5
20260509021440 22 16 3.2 4.8 0.00 0.00 0.00 87 1017.2
20260509020937 22 357 3.2 4.8 0.00 0.00 0.00 87 1017.2
20260509020436 22 23 3.2 4.8 0.00 0.00 0.00 87 1017.2
20260509015932 22 37 3.2 4.8 0.00 0.00 0.00 86 1017.0
20260509015431 22 79 0.0 8.0 0.00 0.00 0.00 86 1016.9
20260509014927 22 63 1.6 3.2 0.00 0.00 0.00 86 1016.9
20260509014424 22 81 0.0 4.8 0.00 0.00 0.00 86 1016.7
20260509013920 22 120 0.0 0.0 0.00 0.00 0.00 86 1016.7
20260509013417 22 90 0.0 4.8 0.00 0.00 0.00 85 1016.4
20260509012913 22 84 3.2 3.2 0.00 0.00 0.00 85 1016.5
20260509012410 22 106 0.0 0.0 0.00 0.00 0.00 85 1016.4
20260509011907 22 45 0.0 3.2 0.00 0.00 0.00 85 1016.3
20260509011404 22 109 0.0 3.2 0.00 0.00 0.00 85 1016.1
20260509010902 22 120 0.0 1.6 0.00 0.00 0.00 85 1015.8
20260509010359 22 106 0.0 3.2 0.00 0.00 0.00 85 1015.8
20260509005856 22 99 0.0 3.2 0.00 0.00 0.00 85 1015.9
20260509005354 22 66 0.0 3.2 0.00 0.00 0.00 85 1015.7
20260509004849 22 98 0.0 3.2 0.00 0.00 0.00 84 1015.9
20260509004346 22 90 3.2 3.2 0.00 0.00 0.00 84 1016.0
20260509003843 22 99 0.0 3.2 0.00 0.00 0.00 84 1015.9
20260509003341 22 99 0.0 1.6 0.00 0.00 0.00 84 1015.8
20260509002838 22 99 0.0 4.8 0.00 0.00 0.00 83 1015.8
20260509002335 22 109 1.6 3.2 0.00 0.00 0.00 83 1015.6
20260509001833 22 75 4.8 4.8 0.00 0.00 0.00 83 1015.5
20260509001329 22 90 0.0 3.2 0.00 0.00 0.00 83 1015.5
20260509000826 22 81 0.0 3.2 0.00 0.00 0.00 83 1015.4
20260509000325 22 90 0.0 3.2 0.00 0.00 0.00 83 1015.1
20260508235820 22 90 3.2 3.2 0.00 0.00 0.00 82 1015.1
20260508235317 22 57 3.2 4.8 0.00 0.00 0.00 82 1015.3
20260508234814 23 82 0.0 4.8 0.00 0.00 0.00 81 1015.2
20260508234310 23 81 0.0 4.8 0.00 0.00 0.00 81 1015.2
20260508233809 23 90 1.6 3.2 0.00 0.00 0.00 81 1015.0
20260508233308 23 109 3.2 4.8 0.00 0.00 0.00 80 1015.3
20260508232805 23 81 0.0 4.8 0.00 0.00 0.00 80 1015.3
20260508232301 23 103 8.0 8.0 0.00 0.00 0.00 80 1014.9
20260508231800 23 77 6.4 11.3 0.00 0.00 0.00 79 1015.1
20260508231255 23 85 3.2 6.4 0.00 0.00 0.00 79 1015.0
20260508230752 23 90 0.0 6.4 0.00 0.00 0.00 79 1014.9
20260508230248 23 86 3.2 6.4 0.00 0.00 0.00 79 1015.3
20260508225746 23 82 1.6 8.0 0.00 0.00 0.00 80 1015.1
20260508225243 23 117 4.8 11.3 0.00 0.00 0.00 80 1015.1
20260508224741 23 52 3.2 6.4 0.00 0.00 0.00 79 1015.2
20260508224238 23 61 3.2 6.4 0.00 0.00 0.00 78 1015.3
20260508223735 23 98 4.8 6.4 0.00 0.00 0.00 78 1015.1
20260508223232 23 58 4.8 6.4 0.00 0.00 0.00 77 1015.1
20260508222730 24 85 3.2 8.0 0.00 0.00 0.00 76 1014.9
20260508222227 24 55 3.2 6.4 0.00 0.00 0.00 76 1015.1
20260508221723 24 82 6.4 8.0 0.00 0.00 0.00 75 1014.9
20260508221219 24 90 4.8 6.4 0.00 0.00 0.00 75 1014.8
20260508220715 24 114 3.2 6.4 0.00 0.00 0.00 74 1014.7
20260508220212 24 81 3.2 6.4 0.00 0.00 0.00 74 1014.7
20260508215709 25 78 3.2 8.0 0.00 0.00 0.00 73 1014.7
20260508215205 24 70 4.8 6.4 0.00 0.00 0.00 73 1014.9
20260508214702 24 74 1.6 6.4 0.00 0.00 0.00 73 1014.9
20260508214200 25 90 6.4 6.4 0.00 0.00 0.00 73 1015.1
20260508213656 25 78 3.2 8.0 0.00 0.00 0.00 73 1015.3
20260508213152 25 72 6.4 6.4 0.00 0.00 0.00 72 1015.0
20260508212649 25 86 4.8 11.3 0.00 0.00 0.00 72 1014.9
20260508212146 25 112 3.2 12.9 0.00 0.00 0.00 72 1014.6
20260508211641 26 75 6.4 9.7 0.00 0.00 0.00 69 1014.5
20260508211137 26 77 8.0 11.3 0.00 0.00 0.00 68 1014.7
20260508210634 27 77 6.4 9.7 0.00 0.00 0.00 68 1014.9
20260508210132 26 67 6.4 12.9 0.00 0.00 0.00 70 1014.7
20260508205629 26 70 6.4 11.3 0.00 0.00 0.00 68 1014.8
20260508205125 27 114 4.8 9.7 0.00 0.00 0.00 67 1014.8
20260508204621 27 80 0.0 9.7 0.00 0.00 0.00 67 1014.9
20260508204118 26 77 6.4 11.3 0.00 0.00 0.00 67 1014.8
20260508203614 28 57 6.4 8.0 0.00 0.00 0.00 65 1014.5
20260508203110 27 66 6.4 11.3 0.00 0.00 0.00 66 1014.5
20260508202606 27 75 4.8 8.0 0.00 0.00 0.00 66 1014.6
20260508202104 27 37 8.0 9.7 0.00 0.00 0.00 67 1014.6
20260508201600 27 92 8.0 9.7 0.00 0.00 0.00 66 1014.5
20260508201057 27 90 3.2 9.7 0.00 0.00 0.00 66 1014.8
20260508200554 27 114 4.8 11.3 0.00 0.00 0.00 67 1014.9
20260508200049 27 116 4.8 8.0 0.00 0.00 0.00 67 1015.0
20260508195547 27 106 6.4 9.7 0.00 0.00 0.00 66 1015.1
20260508195043 26 106 4.8 6.4 0.00 0.00 0.00 68 1015.3
20260508194540 26 80 4.8 11.3 0.00 0.00 0.00 68 1015.6
20260508194037 26 77 3.2 4.8 0.00 0.00 0.00 68 1015.5
20260508193533 27 64 8.0 8.0 0.00 0.00 0.00 66 1015.9
20260508193030 26 59 0.0 8.0 0.00 0.00 0.00 68 1015.7
20260508192527 26 78 8.0 9.7 0.00 0.00 0.00 68 1015.7
20260508192024 26 97 4.8 6.4 0.00 0.00 0.00 68 1015.7
20260508191521 26 90 4.8 8.0 0.00 0.00 0.00 68 1016.0
20260508191017 26 81 4.8 6.4 0.00 0.00 0.00 68 1016.3
20260508190515 25 129 3.2 4.8 0.00 0.00 0.00 69 1016.1
20260508190011 25 87 4.8 8.0 0.00 0.00 0.00 70 1016.0
20260508185509 25 54 6.4 6.4 0.00 0.00 0.00 70 1016.2
20260508185006 25 73 6.4 8.0 0.00 0.00 0.00 70 1016.0
20260508184504 25 74 4.8 6.4 0.00 0.00 0.00 69 1016.2
20260508184000 25 85 3.2 8.0 0.00 0.00 0.00 69 1016.1
20260508183456 25 66 0.0 6.4 0.00 0.00 0.00 71 1016.2
20260508182951 25 64 6.4 11.3 0.00 0.00 0.00 71 1016.2
20260508182449 25 83 1.6 8.0 0.00 0.00 0.00 71 1016.3
20260508181944 25 66 1.6 4.8 0.00 0.00 0.00 70 1016.3
20260508181441 25 77 1.6 4.8 0.00 0.00 0.00 70 1016.4
20260508180938 25 90 1.6 6.4 0.00 0.00 0.00 69 1016.6
20260508180435 25 84 4.8 4.8 0.00 0.00 0.00 69 1016.5
20260508175931 25 105 1.6 4.8 0.00 0.00 0.00 69 1016.6
20260508175427 25 74 3.2 6.4 0.00 0.00 0.00 69 1016.6
20260508174926 25 57 3.2 6.4 0.00 0.00 0.00 69 1016.5
20260508174423 25 55 4.8 8.0 0.00 0.00 0.00 69 1016.8
20260508173919 25 90 4.8 4.8 0.00 0.00 0.00 69 1016.5
20260508173417 25 74 3.2 8.0 0.00 0.00 0.00 69 1016.5
20260508172912 25 85 3.2 4.8 0.00 0.00 0.00 70 1016.7
20260508172410 25 86 3.2 6.4 0.00 0.00 0.00 71 1016.6
20260508171906 25 185 1.6 8.0 0.00 0.00 0.00 71 1016.7
20260508171402 25 100 6.4 8.0 0.00 0.00 0.00 70 1016.7
20260508170859 25 90 0.0 4.8 0.00 0.00 0.00 71 1016.8
20260508170357 25 57 8.0 8.0 0.00 0.00 0.00 69 1016.9
20260508165853 25 90 1.6 6.4 0.00 0.00 0.00 70 1017.0
20260508165351 25 72 3.2 8.0 0.00 0.00 0.00 69 1017.1
20260508164846 25 105 4.8 6.4 0.00 0.00 0.00 70 1017.2
20260508164344 25 75 4.8 6.4 0.00 0.00 0.00 70 1017.0
20260508163841 24 90 1.6 6.4 0.00 0.00 0.00 70 1017.2
20260508163339 24 82 3.2 6.4 0.00 0.00 0.00 72 1017.1
20260508162835 24 75 3.2 4.8 0.00 0.00 0.00 71 1017.5
20260508162332 23 120 0.0 8.0 0.00 0.00 0.00 72 1017.3
20260508161829 23 90 0.0 3.2 0.00 0.00 0.00 73 1017.4
20260508161326 23 78 3.2 4.8 0.00 0.00 0.00 72 1017.7
20260508160823 23 83 1.6 4.8 0.00 0.00 0.00 71 1018.0
20260508160322 23 82 1.6 3.2 0.00 0.00 0.00 71 1017.7
20260508155818 23 71 3.2 6.4 0.00 0.00 0.00 71 1017.7
20260508155315 24 82 4.8 6.4 0.00 0.00 0.00 71 1017.8
20260508154812 24 105 1.6 4.8 0.00 0.00 0.00 71 1017.5
20260508154310 23 90 1.6 6.4 0.00 0.00 0.00 70 1017.6
20260508153806 23 75 3.2 4.8 0.00 0.00 0.00 71 1017.8
20260508153303 23 70 3.2 4.8 0.00 0.00 0.00 71 1017.7
20260508152759 23 106 0.0 4.8 0.00 0.00 0.00 72 1017.9
20260508152256 24 107 3.2 6.4 0.00 0.00 0.00 73 1017.5
20260508151752 23 79 4.8 8.0 0.00 0.00 0.00 73 1017.8
20260508151249 23 82 4.8 4.8 0.00 0.00 0.00 73 1017.6
20260508150745 23 234 0.0 4.8 0.00 0.00 0.00 74 1017.6
20260508150242 23 74 3.2 6.4 0.00 0.00 0.00 73 1017.7
20260508145738 23 80 3.2 4.8 0.00 0.00 0.00 73 1017.5
20260508145235 23 90 1.6 6.4 0.00 0.00 0.00 73 1017.7
20260508144731 23 77 3.2 9.7 0.00 0.00 0.00 73 1017.8
20260508144230 23 58 4.8 6.4 0.00 0.00 0.00 71 1017.9
20260508143727 23 81 0.0 6.4 0.00 0.00 0.00 71 1017.5
20260508143224 24 90 1.6 6.4 0.00 0.00 0.00 72 1017.3
20260508142720 23 48 3.2 6.4 0.00 0.00 0.00 71 1017.4
20260508142217 24 78 4.8 4.8 0.00 0.00 0.00 71 1017.3
20260508141713 24 110 4.8 8.0 0.00 0.00 0.00 71 1017.6
20260508141211 24 127 0.0 4.8 0.00 0.00 0.00 72 1017.3
20260508140708 23 105 4.8 4.8 0.00 0.00 0.00 72 1017.3
20260508140205 23 126 1.6 8.0 0.00 0.00 0.00 73 1017.3
20260508135701 22 117 3.2 6.4 0.00 0.00 0.00 73 1017.4
20260508135156 22 99 0.0 4.8 0.00 0.00 0.00 74 1017.3
20260508134653 22 51 4.8 4.8 0.00 0.00 0.00 76 1017.6
20260508134150 22 51 4.8 4.8 0.00 0.00 0.00 77 1017.4
20260508133647 22 75 4.8 4.8 0.00 0.00 0.00 78 1017.4
20260508133144 22 69 0.0 9.7 0.00 0.00 0.00 78 1017.6
20260508132642 22 60 4.8 6.4 0.00 0.00 0.00 80 1017.2
20260508132138 22 81 0.0 3.2 0.00 0.00 0.00 81 1017.0
20260508131634 22 90 0.0 3.2 0.00 0.00 0.00 82 1017.1
20260508131131 22 82 0.0 3.2 0.00 0.00 0.00 82 1017.2
20260508130627 22 106 1.6 4.8 0.00 0.00 0.00 82 1017.2
20260508130124 22 78 3.2 6.4 0.00 0.00 0.00 82 1017.1
20260508125620 22 68 4.8 11.3 0.00 0.00 0.00 83 1017.0
20260508125118 22 85 3.2 6.4 0.00 0.00 0.00 84 1017.1
20260508124615 22 85 3.2 9.7 0.00 0.00 0.00 84 1017.1
20260508124112 22 127 3.2 6.4 0.00 0.00 0.00 85 1016.8
20260508123610 22 77 1.6 6.4 0.00 0.00 0.00 86 1017.1
20260508123107 22 83 1.6 4.8 0.00 0.00 0.00 86 1017.0
20260508122603 23 81 0.0 3.2 0.00 0.00 0.00 87 1016.7
20260508122101 23 90 1.6 1.6 0.00 0.00 0.00 87 1016.7
20260508121559 23 90 1.6 6.4 0.00 0.00 0.00 87 1016.9
20260508121057 23 45 3.2 4.8 0.00 0.00 0.00 87 1016.6
20260508120554 23 60 1.6 3.2 0.00 0.00 0.00 87 1016.5
20260508120052 23 66 0.0 0.0 0.00 0.00 0.00 88 1016.5
20260508115549 23 90 0.0 3.2 0.00 0.00 0.00 88 1016.6
20260508115046 23 81 0.0 4.8 0.00 0.00 0.00 88 1016.2
20260508114543 23 8 0.0 3.2 0.00 0.00 0.00 88 1016.2
20260508114039 23 14 0.0 4.8 0.00 0.00 0.00 88 1016.1
20260508113537 23 21 0.0 4.8 0.00 0.00 0.00 88 1016.1
20260508113035 23 63 0.0 3.2 0.00 0.00 0.00 88 1015.9
20260508112531 23 337 1.6 1.6 0.00 0.00 0.00 88 1015.8
20260508112028 23 71 1.6 4.8 0.00 0.00 0.00 88 1015.8
20260508111525 23 0 0.0 3.2 0.00 0.00 0.00 89 1015.7
20260508111021 23 68 0.0 4.8 0.00 0.00 0.00 88 1015.6
20260508110520 23 0 0.0 3.2 0.00 0.00 0.00 89 1015.8
20260508110015 23 35 0.0 4.8 0.00 0.00 0.00 89 1015.6
20260508105510 23 15 0.0 4.8 0.00 0.00 0.00 89 1015.4
20260508105008 23 57 0.0 3.2 0.00 0.00 0.00 89 1015.1
20260508104506 23 57 3.2 3.2 0.00 0.00 0.00 90 1014.7
20260508104002 23 352 0.0 0.0 0.00 0.00 0.00 90 1014.8
20260508103459 23 12 1.6 3.2 0.00 0.00 0.00 90 1015.1
20260508102955 23 0 0.0 3.2 0.00 0.00 0.00 90 1015.0
20260508102454 23 254 0.0 0.0 0.00 0.00 0.00 90 1014.8
20260508101951 23 35 1.6 3.2 0.00 0.00 0.00 90 1014.9
20260508101448 23 349 3.2 3.2 0.00 0.00 0.00 90 1014.7
20260508100945 23 23 0.0 1.6 0.00 0.00 0.00 90 1014.4
20260508100444 23 90 0.0 3.2 0.00 0.00 0.00 90 1014.8
20260508095939 23 8 0.0 1.6 0.00 0.00 0.00 90 1014.9
20260508095438 23 26 0.0 3.2 0.00 0.00 0.00 90 1014.6
20260508094934 23 81 0.0 0.0 0.00 0.00 0.00 89 1014.4
20260508094431 23 0 0.0 0.0 0.00 0.00 0.00 89 1014.3
20260508093928 23 0 0.0 0.0 0.00 0.00 0.00 89 1014.2
20260508093425 23 352 0.0 0.0 0.00 0.00 0.00 89 1014.2
20260508092923 23 15 0.0 0.0 0.00 0.00 0.00 89 1014.5
20260508092421 24 279 0.0 0.0 0.00 0.00 0.00 89 1014.5
20260508091919 24 74 0.0 0.0 0.00 0.00 0.00 89 1014.4
20260508091415 24 15 0.0 3.2 0.00 0.00 0.00 88 1014.4
20260508090912 24 0 0.0 4.8 0.00 0.00 0.00 88 1014.3
20260508090411 24 334 1.6 4.8 0.00 0.00 0.00 88 1014.1
20260508085911 24 26 0.0 3.2 0.00 0.00 0.00 88 1014.1
20260508085409 24 0 0.0 1.6 0.00 0.00 0.00 88 1014.0
20260508084905 24 36 3.2 4.8 0.00 0.00 0.00 88 1014.0
20260508084402 24 0 0.0 3.2 0.00 0.00 0.00 87 1014.5
20260508083900 24 0 0.0 3.2 0.00 0.00 0.00 87 1014.3
20260508083357 24 270 0.0 4.8 0.00 0.00 0.00 87 1014.4
20260508082856 24 352 0.0 3.2 0.00 0.00 0.00 87 1014.1
20260508082354 24 8 0.0 0.0 0.00 0.00 0.00 87 1014.1
20260508081852 24 324 0.0 3.2 0.00 0.00 0.00 87 1014.2
20260508081348 24 292 0.0 3.2 0.00 0.00 0.00 87 1014.4
20260508080846 24 0 0.0 0.0 0.00 0.00 0.00 87 1014.3
20260508080343 24 26 0.0 1.6 0.00 0.00 0.00 86 1014.3
20260508075840 24 342 0.0 3.2 0.00 0.00 0.00 86 1014.4
20260508075337 24 270 0.0 3.2 0.00 0.00 0.00 86 1014.3
20260508074835 24 14 0.0 3.2 0.00 0.00 0.00 86 1014.1
20260508074331 24 312 0.0 3.2 0.00 0.00 0.00 86 1014.4
20260508073828 24 7 1.6 6.4 0.00 0.00 0.00 86 1014.5
20260508073326 25 7 1.6 4.8 0.00 0.00 0.00 86 1014.4
20260508072822 25 340 1.6 6.4 0.00 0.00 0.00 86 1014.4
20260508072319 24 285 0.0 3.2 0.00 0.00 0.00 86 1014.4
20260508071816 25 339 3.2 3.2 0.00 0.00 0.00 86 1014.5
20260508071315 25 34 3.2 3.2 0.00 0.00 0.00 85 1014.4
20260508070812 25 66 1.6 3.2 0.00 0.00 0.00 85 1014.7
20260508070310 25 286 0.0 3.2 0.00 0.00 0.00 85 1014.5
20260508065807 25 0 0.0 6.4 0.00 0.00 0.00 85 1014.8
20260508065307 25 308 3.2 4.8 0.00 0.00 0.00 85 1014.9
20260508064803 25 303 3.2 3.2 0.00 0.00 0.00 85 1014.8
20260508064300 25 20 0.0 3.2 0.00 0.00 0.00 85 1014.7
20260508063757 25 346 1.6 3.2 0.00 0.00 0.00 85 1015.0
20260508063256 25 109 0.0 4.8 0.00 0.00 0.00 85 1014.9
20260508062752 25 331 0.0 6.4 0.00 0.00 0.00 85 1014.9
20260508062250 25 294 0.0 4.8 0.00 0.00 0.00 85 1014.7
20260508061747 25 340 0.0 3.2 0.00 0.00 0.00 84 1015.0
20260508061244 25 160 0.0 3.2 0.00 0.00 0.00 84 1014.9
20260508060740 25 344 3.2 4.8 0.00 0.00 0.00 84 1014.9
20260508060239 25 292 4.8 4.8 0.00 0.00 0.00 84 1015.0
20260508055733 25 26 4.8 4.8 0.00 0.00 0.00 84 1014.8
20260508055231 25 331 3.2 4.8 0.00 0.00 0.00 84 1015.1
20260508054727 25 90 1.6 3.2 0.00 0.00 0.00 83 1015.0
20260508054226 25 351 3.2 3.2 0.00 0.00 0.00 83 1015.1
20260508053722 25 246 0.0 4.8 0.00 0.00 0.00 83 1015.1
20260508053220 25 74 0.0 1.6 0.00 0.00 0.00 83 1015.2
20260508052717 25 75 1.6 4.8 0.00 0.00 0.00 83 1015.1
20260508052214 25 49 0.0 3.2 0.00 0.00 0.00 83 1015.0